Farmington, NM

2:11 AM MDT on April 20, 2018 (GMT -0600)
Four Corners Regional

Weather History for KFMN - October, 2013

Change the Weather History Date:

Tuesday, October 22, 2013

  Actual Average Record
Temperature  
Mean Temperature 46 °F -  
Max Temperature 64 °F 62 °F 81 °F (2003)
Min Temperature 28 °F 34 °F 17 °F (1996)
Degree Days  
Heating Degree Days 19    
Moisture  
Dew Point 20 °F    
Average Humidity 36    
Maximum Humidity 64    
Minimum Humidity 9    
Precipitation  
Precipitation 0.00 in - - ()
Sea Level Pressure  
Sea Level Pressure 30.22 in    
Wind  
Wind Speed 5 mph (ENE)    
Max Wind Speed 8 mph    
Max Gust Speed -    
Visibility 10 miles    
Events      
Averages and records for this station are not official NWS values.
T = Trace of Precipitation, MM = Missing Value Source: NWS Daily Summary

Daily Weather History Graph

Daily Weather History Graph

Search for Another Location

Airport or City:

Astronomy

Oct. 22, 2013 Rise Set
Actual Time 7:27 AM MDT 6:26 PM MDT
Civil Twilight 7:00 AM MDT 6:53 PM MDT
Nautical Twilight 6:30 AM MDT 7:23 PM MDT
Astronomical Twilight 6:00 AM MDT 7:53 PM MDT
Moon 9:13 PM MDT (10/22) 10:54 AM MDT (10/22)
Length of Visible Light 11h 52m
Length of Day
10h 59m
Waning Gibbous, 86% of the Moon is Illuminated
Oct 22
Waning Gibbous
Oct 26
Last Quarter
Nov 3
New
Nov 9
First Quarter
Nov 17
Full

Hourly Weather History & Observations

Time (MDT) Temp. Windchill Dew Point Humidity Pressure Visibility Wind Dir Wind Speed Gust Speed Precip Events Conditions
12:53 AM 37.9 °F 33.5 °F 17.1 °F 43% 30.18 in 10.0 mi NNE 5.8 mph - N/A   Clear
1:53 AM 36.0 °F 30.3 °F 18.0 °F 48% 30.19 in 10.0 mi East 6.9 mph - N/A   Clear
2:53 AM 36.0 °F 30.3 °F 19.9 °F 52% 30.19 in 10.0 mi ENE 6.9 mph - N/A   Clear
3:53 AM 32.0 °F 26.4 °F 18.0 °F 56% 30.20 in 10.0 mi NE 5.8 mph - N/A   Clear
4:53 AM 32.0 °F 27.5 °F 19.9 °F 61% 30.21 in 10.0 mi East 4.6 mph - N/A   Clear
5:53 AM 30.0 °F 24.1 °F 19.0 °F 64% 30.24 in 10.0 mi ENE 5.8 mph - N/A   Clear
6:53 AM 30.9 °F 25.2 °F 19.0 °F 61% 30.26 in 10.0 mi ENE 5.8 mph - N/A   Clear
7:53 AM 32.0 °F 26.4 °F 21.0 °F 64% 30.29 in 10.0 mi East 5.8 mph - N/A   Clear
8:53 AM 37.9 °F 32.1 °F 21.0 °F 51% 30.30 in 10.0 mi East 8.1 mph - N/A   Clear
9:53 AM 42.1 °F 39.2 °F 21.9 °F 45% 30.30 in 10.0 mi SE 4.6 mph - N/A   Clear
10:53 AM 48.0 °F - 21.0 °F 34% 30.28 in 10.0 mi SE 4.6 mph - N/A   Clear
11:53 AM 54.0 °F - 19.9 °F 26% 30.26 in 10.0 mi Calm Calm - N/A   Clear
12:53 PM 57.0 °F - 19.9 °F 24% 30.24 in 10.0 mi Calm Calm - N/A   Clear
1:53 PM 60.1 °F - 19.9 °F 21% 30.21 in 10.0 mi Variable 4.6 mph - N/A   Clear
2:53 PM 63.0 °F - 19.0 °F 18% 30.18 in 10.0 mi WNW 5.8 mph - N/A   Clear
3:53 PM 63.0 °F - 19.0 °F 18% 30.18 in 10.0 mi Calm Calm - N/A   Clear
4:00 PM 62.6 °F - 19.4 °F 19% 30.22 in 10.0 mi Calm Calm - N/A   Clear
4:53 PM 64.0 °F - 18.0 °F 17% 30.16 in 10.0 mi WNW 4.6 mph - N/A   Clear
5:53 PM 61.0 °F - 19.0 °F 20% 30.17 in 10.0 mi WSW 6.9 mph - N/A   Clear
6:53 PM 54.0 °F - 18.0 °F 24% 30.19 in 10.0 mi WSW 5.8 mph - N/A   Clear
7:53 PM 52.0 °F - 18.0 °F 26% 30.21 in 10.0 mi WSW 4.6 mph - N/A   Clear
8:53 PM 44.1 °F - 19.9 °F 38% 30.22 in 10.0 mi Calm Calm - N/A   Clear
9:53 PM 42.1 °F 37.7 °F 19.9 °F 41% 30.22 in 10.0 mi NNE 6.9 mph - N/A   Clear
10:53 PM 37.9 °F 34.4 °F 19.9 °F 48% 30.22 in 10.0 mi NNE 4.6 mph - N/A   Clear
11:53 PM 37.0 °F 32.4 °F 21.0 °F 52% 30.20 in 10.0 mi ENE 5.8 mph - N/A   Clear